FW6799 Weather Reports


time (UTC)temp
C
wind
direction
speed
KPH
gust
KPH
rain 1hr
cm
rain 24hr
cm
rain mn
cm
humidity
%
barometer
mb
20260504190511 16 95 9.7 19.3 0.00 0.00 0.00 36 1017.8
20260504190409 16 95 9.7 19.3 0.00 0.00 0.00 36 1017.8
20260504184641 16 140 12.9 24.1 0.00 0.00 0.00 35 1017.9
20260504183137 16 180 12.9 19.3 0.00 0.00 0.00 35 1018.0
20260504180154 16 136 8.0 19.3 0.00 0.00 0.00 34 1018.2
20260504180108 16 136 8.0 19.3 0.00 0.00 0.00 34 1018.2
20260504173336 16 131 6.4 14.5 0.00 0.00 0.00 33 1018.6
20260504171656 16 131 4.8 11.3 0.00 0.00 0.00 33 1018.5
20260504170150 16 135 4.8 11.3 0.00 0.00 0.00 32 1018.5
20260504120114 21 150 12.9 20.9 0.00 0.00 0.00 26 1019.3
20260504081549 27 79 14.5 27.4 0.00 0.00 0.00 20 1017.3
20260504044552 26 128 16.1 24.1 0.00 0.00 0.00 22 1018.5
20260504043109 27 127 12.9 27.4 0.00 0.00 0.00 22 1018.9
20260504041549 26 151 16.1 24.1 0.00 0.00 0.00 22 1019.2
20260504040049 26 93 16.1 27.4 0.00 0.00 0.00 22 1019.7
20260504034552 26 147 17.7 27.4 0.00 0.00 0.00 22 1019.7
20260504033050 26 93 16.1 30.6 0.00 0.00 0.00 23 1019.9
20260504031554 26 141 17.7 27.4 0.00 0.00 0.00 23 1020.3
20260504030101 25 93 17.7 33.8 0.00 0.00 0.00 24 1020.6
20260504024550 25 108 17.7 29.0 0.00 0.00 0.00 25 1020.9
20260504023048 25 101 17.7 27.4 0.00 0.00 0.00 24 1020.9
20260504021549 24 180 16.1 33.8 0.00 0.00 0.00 25 1021.0
20260504020053 23 115 17.7 38.6 0.00 0.00 0.00 26 1021.1
20260504014544 23 114 22.5 35.4 0.00 0.00 0.00 26 1021.4
20260504013053 23 110 20.9 30.6 0.00 0.00 0.00 27 1021.5
20260504011547 22 101 14.5 27.4 0.00 0.00 0.00 28 1021.5
20260504010056 22 76 12.9 32.2 0.00 0.00 0.00 28 1021.4
20260504004547 21 133 14.5 38.6 0.00 0.00 0.00 29 1021.3
20260504003049 21 131 14.5 37.0 0.00 0.00 0.00 30 1021.0
20260504001556 20 76 14.5 32.2 0.00 0.00 0.00 31 1021.1
20260504000054 19 114 14.5 24.1 0.00 0.00 0.00 32 1021.0
20260503234551 18 129 14.5 25.7 0.00 0.00 0.00 33 1020.8
20260503233053 18 141 9.7 19.3 0.00 0.00 0.00 34 1020.7
20260503231551 17 149 4.8 16.1 0.00 0.00 0.00 34 1020.5
20260503230114 17 137 8.0 17.7 0.00 0.00 0.00 35 1020.5